SL-8 R/B, 9023

Orbit data source: Space-Track

SL-8 R/B, 9023 is space debris in LEO originally from a launch on Thu, 15 Jul 1976 UTC launched from the Plesetsk Missile And Space Complex (PKMTR). Debris objects in space refer to the collection of defunct objects orbiting the Earth. Examples of debris include non-operational satellites, rocket bodies, and fragments generated from explosions, collisions, or faulty payload assembly.

Loading next visibility...
Identifier
9023, 1976-069B
Orbit
LEO
Country
Flag of CISCIS
Related business
Manufacturer
Omsk Av. Zav.
Mission
Spacecraft
Bus & Motor
S3, Unknown motor
Mass
1,434 kg wet, 1,434 kg dry
Launch date (UTC)
1976-07-15 (50 years ago)
Launch vehicle
Unknown
Launch site
Plesetsk Missile And Space Complex (PKMTR)
Object type
Payload
Rocket body
Debris
Shape & HBR
Unknown
Radar Cross Section
Large (>1 m²)

Expand to show TLE details & history
Last TLE update: 8 hours ago

TLE from 8 hours ago
0 SL-8 R/B
1 09023U 76069B   26095.22242572  .00000283  00000-0  95730-4 0  9991
2 09023  74.0402 280.7628 0016837   9.1221 351.0237 14.41199880607162
Epoch: 2026-04-05T05:20Z
TLE epoch observation values (Epoch: 2026-04-05T05:20:17.582Z)
Latitude
-0.00001°
Longitude
7.15859°
Altitude
745.291 km
Speed
7.488 km/s
True Right ascension
18h 43m 03s
True Declination
0° 00' 00"
Sunlit
Object was in daylight at epoch
Visualization orbit readout
Latitude
Unknown
Longitude
Unknown
Altitude
Unknown
Speed
Unknown
Apparent Right ascension
Unknown
Apparent Declination
Unknown
Sunlit
N/A
Visualization observer readout
Local Sidereal Time
19:27:00
Azimuth
Unknown
Elevation
Unknown
Doppler factor
Unknown
Orbital elements
Apogee altitude
764.16 km
Perigee altitude
740.149 km
Semi-major axis
7,130.292 km
Eccentricity
0.00168
Inclination
74.0402°
RAAN
280.7628°
Arg. of periapsis
9.1221°
True anomaly
350.99353°
Mean anomaly
351.0237°
Eccentric anomaly
351.00862°
Mean motion
3.60481 °/min
Orbital period
99.87 mins
BSTAR
0.00009573
Loading maneuver chart data...
Computing Atmospheric mass density...
Loading historical data...
Loading historical data...
Loading historical data...
Loading historical data...
Loading historical data...
Loading historical data...
Loading historical data...
Other satellites on launch #69 in the year 1976 (1976-07-15 UTC)

Documentation

Showing up to 5 results
|